Regional Weather Roundup
Issued by NWS

Home | Current Version | Previous Version | Text Only | Print | Product List | Glossary On
Versions: 1 2 3 4 5 6 7 8 9 10 11 12 13 14 15 16 17 18 19 20 21 22 23 24 25 26 27 28 29 30 31 32 33 34 35 36 37 38 39 40 41 42 43 44 45 46 47 48 49 50
000
ASCA44 KEWX 271320
RWRMX

LATIN AMERICA AND CARIBBEAN REGIONAL WEATHER ROUNDUP
NATIONAL WEATHER SERVICE AUSTIN/SAN ANTONIO TX
700 AM CST FRI FEB 27 2015

NOTE: "FAIR" INDICATED FEW OR NO CLOUDS BELOW 12,000 FEET WITH NO
SIGNIFICANT WEATHER AND/OR OBSTRUCTIONS TO VISIBILITY.

BAJA CALIFORNIA

CITY           SKY/WX    TMP DP  RH WIND       PRES   REMARKS
LA PAZ         PTCLDY    57  54  88 S6        29.90
S.J. DEL CABO  CLEAR     54  45  71 W7        29.87
TIJUANA        MOCLDY    55  48  76 NE7       29.85

NORTHWESTERN MEXICO

CITY           SKY/WX    TMP DP  RH WIND       PRES   REMARKS
DURANGO        PTCLDY    48  30  49 SW13      30.06  WCI  43
CD. JUAREZ     CLOUDY    28  18  64 NE13      29.98  WCI  18

NORTHEASTERN MEXICO

CITY           SKY/WX    TMP DP  RH WIND       PRES   REMARKS
CHIHUAHUA      CLEAR     34  23  64 MISG      29.96
MATAMOROS      MOCLDY    52  50  93 NW5       30.21
MONCLOVA       DRIZZLE   37  36  93 NE12      30.20  WCI  30
MONTERREY      LGT RAIN  46  46 100 E6        30.19R FOG     WCI  43
NUEVO LAREDO   CLOUDY    41  28  60 NE14      30.29  WCI  33
REYNOSA        MOCLDY    45  39  81 N9        30.22  WCI  40
SALTILLO       FOG       41  41 100 N10       30.11S VSB 0   WCI  35
TORREON        CLEAR     50  41  71 E10       29.99  WCI  46
CD. VICTORIA   DRIZZLE   54  54 100 W6        30.18  FOG

WESTERN MEXICO

CITY           SKY/WX    TMP DP  RH WIND       PRES   REMARKS
AGUASCALIENTES MOCLDY    45  27  49 CALM      30.13
COLIMA         CLEAR     63  55  77 CALM      29.94R
DEL BAJIO      PTCLDY    45  37  76 CALM      30.19R
GUADALAJARA    PTCLDY    43  37  81 CALM      30.08
MANZANILLO     CLEAR     61  61 100 N7        29.83
MAZATLAN       PTCLDY    54  50  87 N9        29.88R
P. VALLARTA    CLEAR     64  63  94 CALM      29.86S
URUAPAN        CLEAR     50  46  87 CALM      30.09
ZACATECAS      CLEAR     45  21  39 S12       30.11  WCI  39

CENTRAL MEXICO

CITY           SKY/WX    TMP DP  RH WIND       PRES   REMARKS
CUERNAVACA     PTCLDY    61  36  39 CALM      30.06
MEXICO CITY    PTCLDY    52  32  46 NE7       30.20R
MORELIA        PTCLDY    43  37  81 CALM      30.13
POZA RICA      LGT RAIN  59  59 100 N9        30.15S VSB 3/4
PUEBLA         PTCLDY    41  36  81 W3        30.23R
QUERETARO      CLEAR     43  39  87 E6        30.21R WCI  39
S. LUIS POTOSI CLOUDY    45  37  76 E5        30.18R WCI  42
TAMPICO        CLOUDY    61  55  82 N9        30.15R
TOLUCA         CLEAR     36  32  87 CALM      30.28

SOUTHERN MEXICO

CITY           SKY/WX    TMP DP  RH WIND       PRES   REMARKS
ACAPULCO       CLEAR     72  70  94 N2        29.87R
B. DE HUATULCO PTCLDY    72  66  83 CALM      29.94
OAXACA         MOCLDY    52  46  82 CALM      30.18R
P. ESCONDIDO   CLEAR     68  63  83 E12       30.01
VERACRUZ       DRIZZLE   63  59  88 W3        30.08R
ZIHUATANEJO    CLEAR     68  63  83 CALM      29.87

YUCATAN PENINSULA

CITY           SKY/WX    TMP DP  RH WIND       PRES   REMARKS
CAMPECHE       PTCLDY    72  70  94 N6        29.96R
CANCUN         MOSUNNY   72  72 100 NW2       30.00R
CHETUMAL       CLOUDY    75  68  78 CALM      29.95R
CD. DEL CARMEN CLOUDY    77  70  78 NE16      29.97
COZUMEL        PTSUNNY   72  72 100 CALM      29.99R
MERIDA         PTCLDY    73  70  88 NE9       30.00R
MINATITLAN     CLOUDY    66  64  94 S7        30.00
TAPACHULA      CLEAR     75  66  73 CALM      29.89R
TUX. GUTIERREZ MOCLDY    68  61  77 NW7       30.02R
VILLAHERMOSA   DRIZZLE   68  66  94 W5        30.01R FOG

CENTRAL AMERICA

CITY           SKY/WX    TMP DP  RH WIND       PRES   REMARKS
BELIZE CITY    PTSUNNY   75  73  94 CALM      29.95R
MANAGUA        MOSUNNY   75  68  78 SE5       29.89R

CARIBBEAN

CITY           SKY/WX    TMP DP  RH WIND       PRES   REMARKS
ARUBA          MOSUNNY   84  72  65 E21       29.94R
CURACAO        MOSUNNY   84  73  70 E16       30.00R HX  91
KINGSTON       MOSUNNY   81  68  65 SE18      30.00R
SAN JUAN       MOSUNNY   81  70  69 E10       30.10S
SANTO DOMINGO  MOSUNNY   75  72  88 NE9       30.09R
ST. KITTS      MOSUNNY   82  68  61 E18       30.09R

$$




USA.gov is the U.S. government's official web portal to all federal, state and local government web resources and services.